Find Starlink 6060

NORAD ID: 56794 Int'l Des: 2023-078 Owner: SPXS Country: US Constellation: starlink operational
LEOCIRCULAR

Aktuelle Ansicht

3D-Globus wird geladen...

Über Starlink 6060

Beschreibung wird geladen...

Nächste Überflüge

Passes for default location (London). Set your location on the main map for personalized predictions.

Höhenverlauf

Loading altitude history...

Zweizeiliger Elementsatz

1 56794U 23078AD 26150.33464367 .00001064 00000-0 96936-4 0 9999
2 56794 69.9991 118.5811 0003765 266.1779 93.8950 14.98325055165402
Epoch: 30. Mai 2026 • Age: 10 hours

Aktueller Status

Höhe 585.9 km
Geschwindigkeit 7.57 km/s
Subsatellitenpunkt 68.49°N, 25.83°E
Startdatum 31. Mai 2023
Alter 2.9 years
Typ internet

Technische Details

Klassifizierung Payload
Masse 305.00 kg
Trockenmasse 290.00 kg
Gesamtmasse 305.00 kg
Länge 0.20 m
Durchmesser 2.80 m
Spannweite 9.00 m
Form Box + pan
Hersteller SPXS
Bus-Typ Starlink
Phasenstatus In Orbit
Besitzer/Staat SPXS/US

Most Searched